Location: Edmondson
(35.1065°N, 90.3104°W)
Time: 08:34:26
(UTC+00:00)

Envisat - Visible Passes

Search period start: 05 October 2024 00:00
Search period end: 15 October 2024 00:00
Orbit: 762 x 764 km, 98.3° (Epoch: 04 October)

Date Brightness Start Highest point End Pass type
(mag) Time Alt. Az. Time Alt. Az. Time Alt. Az.
05 Oct 4.9 09:55:42 10° N 09:57:02 17° NNW 09:57:02 17° NNW visible
06 Oct 5.1 09:17:44 10° N 09:18:59 18° N 09:18:59 18° N visible
07 Oct 5.7 08:40:26 10° NNE 08:40:56 13° NNE 08:40:56 13° NNE visible
07 Oct 5.1 10:20:31 10° NNW 10:21:04 12° NNW 10:21:04 12° NNW visible
08 Oct 5.1 09:41:58 10° N 09:43:01 16° N 09:43:01 16° N visible
09 Oct 5.5 09:04:15 10° NNE 09:04:58 14° NNE 09:04:58 14° NNE visible
10 Oct 5.2 10:06:31 10° NNW 10:07:03 12° NNW 10:07:03 12° NNW visible
11 Oct 5.3 09:28:19 10° N 09:28:59 14° N 09:28:59 14° N visible
12 Oct 5.8 08:50:49 10° NNE 08:50:56 11° NNE 08:50:56 11° NNE visible
13 Oct 5.3 09:52:40 10° N 09:52:59 12° N 09:52:59 12° N visible
14 Oct 5.6 09:14:44 10° N 09:14:56 11° N 09:14:56 11° N visible
